Wind_Speed
18 19 18 18 17 17 18 19 19 20 20 21 21 22 23 25 27 29 30 32 35 38 41 40 36 35 35 34 33 31 27 26 25 24 26 27 25 22 19 19 19 19 19 20 20 20 20 20 20 19 18 17 18 17 18 19 21 20 19 20 23 23 21 22 23 22 21 22 22 19 17 19 20 19 18 14 13 15 16 14 13 15 17 19 20
19 19 18 18 18 18 19 20 20 20 20 20 21 21 23 25 27 29 31 32 34 38 41 40 35 32 31 29 28 27 25 25 25 23 26 28 25 21 19 18 19 19 19 19 20 20 21 21 19 18 18 18 18 18 17 17 18 19 19 21 22 23 22 23 23 23 22 22 21 20 20 19 18 19 18 14 13 15 16 15 15 17 18 19 21
18 18 18 18 19 19 19 20 21 20 20 20 20 21 22 24 26 28 30 31 33 37 40 37 32 30 29 26 26 25 22 22 23 23 25 28 25 22 20 19 19 18 19 19 19 20 21 20 19 18 18 18 18 18 17 17 18 19 20 21 21 22 24 25 25 25 24 23 22 23 21 18 15 16 16 13 13 15 17 16 17 18 19 20 21
18 18 19 19 19 20 20 21 21 21 21 21 21 22 23 25 27 28 29 30 33 38 39 32 28 28 27 25 25 23 21 21 22 22 24 26 25 22 21 20 19 18 19 19 19 20 20 20 20 17 17 18 18 18 17 17 18 19 20 20 21 23 25 26 26 26 26 25 23 22 21 18 15 13 13 13 13 15 17 17 18 19 19 20 22
18 18 19 19 20 21 21 22 22 22 21 22 22 23 24 25 26 27 28 30 31 36 37 28 23 25 27 26 25 22 21 22 23 23 24 26 25 23 22 21 19 18 19 19 19 20 20 21 20 18 18 19 18 17 18 17 18 19 19 20 21 23 25 26 26 25 27 27 23 21 21 18 15 13 13 14 14 14 16 17 18 19 20 20 23
18 19 20 20 21 22 22 23 23 22 22 23 23 24 23 24 25 25 27 29 29 34 35 25 21 23 25 24 24 23 21 22 23 23 26 27 26 24 23 21 19 18 19 19 19 19 20 20 20 19 19 19 17 17 18 19 19 19 19 20 22 23 25 26 26 25 26 25 21 19 19 16 15 15 13 14 14 14 15 16 17 19 20 21 23
20 21 21 22 23 23 23 23 23 23 23 23 23 23 23 23 23 25 27 28 28 31 31 22 19 23 24 23 23 23 22 21 22 24 25 25 24 22 21 19 18 18 18 18 19 19 19 20 20 19 20 19 18 17 18 20 20 20 21 22 21 22 24 24 23 22 22 21 19 19 17 15 17 17 13 13 15 15 15 15 15 18 20 20 22
21 22 22 23 24 24 24 24 24 23 23 23 22 23 22 22 23 24 26 27 27 28 27 18 16 21 22 22 22 23 23 23 23 24 24 23 22 20 18 16 15 16 17 18 18 19 19 20 20 19 20 21 19 18 18 20 19 20 23 22 19 19 21 22 21 20 20 20 20 20 18 16 17 18 16 15 16 16 15 13 14 17 18 18 20
21 21 22 23 24 24 24 24 24 23 22 21 21 21 22 22 22 23 25 26 26 26 26 18 15 18 16 19 21 22 22 23 23 23 22 22 22 19 16 15 15 16 16 17 18 19 20 20 20 20 20 21 21 20 19 20 20 21 22 21 18 18 20 22 22 21 21 23 22 22 22 20 19 18 17 18 18 16 14 14 13 15 17 17 18
21 21 22 22 23 24 24 24 24 23 22 21 20 20 20 21 21 22 24 26 26 26 26 20 17 17 13 13 18 19 19 20 20 20 19 19 19 19 17 15 16 16 16 17 18 19 19 20 20 20 20 22 22 22 21 21 21 21 20 20 19 19 20 23 23 22 23 24 24 24 23 23 22 20 20 20 19 16 16 15 14 14 16 17 17
21 21 22 22 22 23 23 23 23 23 22 21 20 20 20 20 20 21 23 25 26 26 24 20 17 19 16 13 14 15 15 16 17 18 18 19 19 19 17 16 15 16 17 17 17 18 18 20 20 21 22 23 24 23 22 22 22 22 21 21 19 19 21 22 22 23 23 23 23 25 24 24 25 24 22 23 22 19 17 16 15 15 16 16 17
21 21 21 22 22 22 23 23 23 23 23 23 22 21 21 20 20 20 21 23 24 25 24 19 17 17 18 18 18 16 13 13 16 18 18 20 22 20 17 16 16 16 17 16 17 18 19 20 20 21 22 23 24 23 23 23 22 22 22 21 20 20 21 21 21 21 22 22 23 25 27 28 27 25 23 22 22 22 19 18 17 16 16 17 17
20 20 20 21 22 22 23 23 24 24 24 25 24 23 22 21 20 20 20 21 22 23 24 22 18 16 17 20 22 21 18 16 17 17 17 20 22 21 19 19 18 18 17 16 17 19 19 19 20 21 22 23 23 24 24 23 22 22 22 22 21 21 21 21 20 20 22 24 24 25 26 28 28 28 26 23 22 22 21 19 19 17 16 16 16
17 18 18 19 20 21 22 22 23 24 24 25 25 24 24 23 21 21 20 21 22 22 23 24 23 20 18 19 20 21 21 22 21 19 19 20 22 22 21 22 21 20 20 19 19 19 19 20 20 21 22 23 23 25 25 23 23 22 22 22 22 22 22 21 20 20 23 25 25 25 24 26 28 29 28 25 23 24 22 20 19 18 17 17 18
15 15 16 17 18 19 20 20 21 22 22 23 23 24 24 23 22 21 20 20 21 22 22 23 25 25 24 21 21 19 19 21 23 24 23 22 23 24 24 24 23 21 21 21 21 21 21 21 21 22 23 22 23 25 25 23 23 23 23 23 24 24 23 22 21 21 22 23 25 24 24 26 28 27 27 25 25 26 25 22 20 19 19 21 21
13 14 15 15 16 17 17 17 18 18 19 20 21 21 22 22 23 22 21 20 20 21 21 21 23 27 28 28 27 25 22 22 24 26 26 26 26 26 26 26 25 23 22 22 23 22 22 22 21 23 24 23 22 24 24 24 24 24 25 26 25 24 23 23 23 23 23 24 25 25 24 25 26 26 26 26 27 29 29 26 24 22 22 22 22
15 15 15 15 15 16 16 16 16 16 17 17 18 19 20 20 21 22 21 20 20 21 21 20 21 24 27 30 30 30 29 28 27 27 27 27 28 28 28 28 27 26 24 23 24 23 21 20 20 21 23 22 21 23 25 25 24 25 26 27 25 24 25 26 26 25 25 25 26 26 24 24 25 26 27 28 30 32 33 32 31 29 26 23 23
17 18 18 17 17 17 17 17 17 17 17 17 17 17 18 19 19 19 20 20 19 20 21 21 20 20 22 26 29 30 31 32 32 30 28 28 29 30 30 29 29 28 27 26 26 25 21 20 20 21 22 21 20 23 25 26 25 26 26 26 25 25 26 26 26 26 26 26 26 26 25 25 25 26 27 28 30 33 36 38 37 34 30 26 26
18 18 19 19 19 19 19 19 19 19 19 18 17 17 17 17 18 18 18 18 18 19 20 21 22 21 20 22 25 27 29 31 33 34 33 32 31 31 32 32 31 31 30 29 29 28 24 21 22 22 22 21 21 23 25 26 27 27 27 26 27 27 27 26 27 27 26 26 26 26 25 26 25 26 26 27 28 30 36 40 39 36 33 30 29
18 18 19 20 20 19 19 20 20 20 20 19 19 18 17 17 17 17 17 17 17 17 18 19 21 21 21 22 23 25 27 28 30 31 33 35 34 33 33 34 34 34 33 32 32 30 26 24 25 25 24 23 23 24 26 27 28 28 28 28 28 28 28 27 27 27 27 26 27 26 26 26 25 25 27 27 27 28 33 39 41 39 36 34 32
18 18 19 19 20 19 19 19 19 19 19 19 19 19 19 18 18 18 18 18 17 17 17 17 18 19 20 21 22 23 24 26 27 28 29 32 34 34 34 34 35 36 36 36 37 35 30 27 28 28 27 26 26 27 27 28 30 30 30 29 29 28 28 28 27 28 28 28 27 27 27 27 26 26 26 27 26 26 29 37 43 41 37 34 34
17 18 18 19 20 20 19 18 19 19 19 19 19 18 18 18 18 18 18 19 18 18 17 17 18 18 18 19 20 21 21 22 24 26 27 29 31 34 36 37 37 37 38 39 40 38 34 32 31 31 30 29 29 29 29 30 32 33 31 30 29 29 29 29 29 29 29 28 28 28 28 27 26 25 25 25 25 25 28 36 43 44 39 35 34
18 18 19 20 21 21 21 20 19 20 20 20 20 20 19 18 18 18 18 18 19 19 18 18 18 18 18 18 18 18 18 19 20 21 24 26 29 31 35 38 38 38 39 39 40 41 39 37 35 35 35 34 33 32 32 33 34 34 32 31 31 31 31 30 30 29 29 28 28 27 27 26 26 25 23 22 22 23 27 34 42 45 42 37 36
19 19 20 21 21 21 22 22 21 20 20 20 21 21 20 20 19 19 19 19 19 19 19 18 18 18 18 18 17 17 17 17 17 18 19 22 25 27 30 34 37 38 37 36 37 40 40 38 35 34 36 37 37 35 35 36 36 36 34 33 33 33 32 32 31 30 29 27 27 26 26 26 25 24 22 22 21 21 24 30 36 40 39 35 32
20 20 20 20 20 21 22 23 22 21 21 21 21 21 21 21 21 20 20 20 20 19 19 19 19 18 18 18 18 17 17 17 16 16 17 18 20 22 24 26 30 34 36 34 34 35 36 37 35 33 35 37 38 36 36 37 38 38 36 36 36 34 33 32 32 30 28 28 27 27 27 26 25 24 23 23 23 23 24 26 29 30 30 27 25
22 21 20 19 19 20 21 22 22 22 22 22 23 23 22 22 22 22 21 20 20 19 19 19 19 18 18 17 18 18 17 17 16 16 16 16 17 18 20 20 21 23 26 28 29 28 29 33 36 36 35 36 37 36 35 36 38 38 38 37 35 33 32 31 30 30 29 30 29 29 29 28 27 26 25 24 24 25 26 26 26 26 26 25 24
23 23 23 21 20 20 21 22 22 22 23 23 23 24 24 23 22 22 22 21 21 20 19 19 18 18 17 16 17 18 18 18 17 16 15 14 14 15 18 19 18 17 18 20 22 21 22 26 31 35 36 35 35 35 36 36 36 37 38 37 34 33 33 33 32 31 32 32 31 30 30 29 28 27 27 26 26 26 26 26 26 26 25 25 25
24 25 25 24 22 21 21 21 21 21 23 24 23 23 25 26 25 24 24 23 23 22 21 20 19 19 18 16 16 16 17 17 17 16 15 13 12 13 15 17 17 17 16 15 17 19 21 23 27 31 33 33 32 33 35 36 36 37 37 37 35 35 36 37 36 36 35 34 34 33 32 32 31 30 30 29 28 27 27 26 26 27 27 27 28
24 24 24 25 24 21 20 20 20 19 21 23 24 24 25 26 27 26 25 25 24 23 22 21 20 19 18 17 16 15 15 16 16 16 16 14 12 11 12 13 14 14 14 13 12 14 17 20 23 25 28 29 30 31 33 35 36 37 38 38 37 37 38 39 40 41 40 39 38 38 38 37 36 35 33 31 29 28 29 30 30 30 30 29 28
22 23 24 25 24 21 19 20 21 20 19 20 23 25 27 27 27 27 26 26 25 24 24 23 21 20 19 18 17 15 15 15 15 15 15 14 13 12 11 11 12 12 13 12 12 11 12 14 17 19 22 24 25 27 29 31 32 33 35 35 35 35 36 37 39 41 41 40 41 42 42 40 38 35 33 30 30 32 33 34 32 30 27 25 24
20 21 22 23 24 22 21 21 21 20 19 19 19 22 25 28 28 27 27 26 26 25 25 24 22 21 20 18 17 16 15 15 14 14 13 13 13 12 11 10 10 10 11 12 12 13 12 12 12 13 15 17 19 20 23 25 26 27 28 29 30 31 32 33 34 34 34 33 34 35 36 34 32 30 28 28 29 29 29 28 25 24 23 23 24
19 20 21 23 23 22 22 22 21 19 20 22 21 21 22 25 28 29 28 27 26 26 25 24 23 23 22 20 19 17 16 15 15 14 13 13 13 12 12 11 10 9 9 10 11 12 12 12 12 12 12 13 14 16 17 19 20 21 22 23 25 26 27 27 27 27 27 26 26 27 27 26 25 23 22 22 22 22 22 21 22 22 23 22 21
19 19 20 22 22 21 21 23 21 19 20 24 23 21 21 24 28 30 30 28 27 27 26 25 23 22 22 21 20 18 16 15 14 14 14 13 12 13 13 12 11 10 9 8 9 9 9 10 11 12 13 13 14 15 15 16 16 17 18 19 20 21 22 23 23 23 23 23 23 23 22 21 21 20 19 20 20 20 20 19 18 17 16 14 13
18 18 18 20 22 20 20 21 21 21 23 24 21 19 21 25 29 31 30 28 27 27 27 26 25 23 22 21 20 19 17 15 14 14 13 12 12 12 12 12 12 11 10 9 8 8 8 8 9 10 11 12 13 15 15 16 16 17 17 17 18 18 19 19 19 19 19 19 19 19 19 19 19 19 20 19 18 17 15 12 11 10 9 8 8
17 17 19 21 21 20 19 18 20 21 23 23 21 21 23 26 29 31 30 28 27 26 25 25 25 24 23 21 20 19 18 16 15 14 13 12 12 11 11 12 12 11 10 10 9 8 8 8 8 8 8 9 10 11 13 14 15 15 15 16 16 16 16 17 17 17 17 17 17 17 17 17 16 15 14 13 12 11 10 9 8 7 6 6 7
16 16 19 21 21 20 19 18 19 21 22 23 23 24 25 26 28 29 29 29 28 26 24 24 24 23 23 21 20 19 18 16 15 14 13 12 12 11 10 11 11 11 10 10 9 8 7 7 7 6 6 6 6 7 8 9 10 11 12 12 13 13 14 14 15 15 14 14 13 13 12 12 11 11 11 11 10 9 8 6 5 4 5 6 8
16 17 19 20 20 19 18 18 18 20 22 23 24 24 25 26 27 28 29 29 29 26 25 24 23 22 22 21 20 19 18 16 15 14 13 12 12 11 11 10 10 10 10 9 8 7 6 5 5 5 4 4 3 3 3 4 5 6 8 9 9 10 10 11 11 11 11 11 11 12 12 12 12 11 10 9 7 6 4 4 4 6 7 9 11
17 18 19 20 20 19 18 18 18 19 21 22 23 23 24 25 27 27 28 28 28 27 26 26 24 22 22 21 21 20 18 17 16 15 12 10 10 11 11 11 10 9 8 8 8 7 6 5 4 3 3 2 2 1 1 2 4 5 6 7 8 9 10 11 11 12 12 12 12 12 11 10 9 8 6 4 3 3 4 5 6 8 9 10 11
18 19 19 20 20 19 19 18 18 19 21 22 22 22 24 25 25 25 26 27 28 27 27 27 24 23 22 22 22 21 19 17 16 14 11 9 9 10 10 11 11 9 8 8 8 8 7 5 4 3 2 2 2 2 2 3 4 5 7 8 8 9 10 11 11 11 11 10 10 9 7 6 5 4 3 3 3 4 6 7 8 9 9 9 9
18 19 20 21 21 20 19 19 18 19 20 21 21 22 23 23 23 23 25 28 28 28 28 27 25 23 22 22 22 22 20 18 16 14 11 10 10 10 10 10 10 10 9 8 8 9 8 7 6 5 4 3 3 3 4 4 5 5 6 7 7 8 8 8 8 7 7 7 6 5 4 4 3 3 3 4 5 6 7 7 8 7 7 7 7
18 18 20 23 21 18 16 17 17 18 20 21 21 21 22 22 23 23 25 27 28 28 28 27 25 24 23 22 21 21 20 18 16 14 12 10 10 10 10 9 9 9 9 8 8 9 8 7 7 7 5 4 4 4 4 5 5 5 5 6 6 6 6 5 5 5 4 4 3 3 2 3 3 4 5 6 6 7 7 7 7 6 6 6 6
17 17 19 21 20 16 14 15 15 17 20 21 20 20 21 22 23 24 24 25 27 27 27 26 25 25 25 24 22 21 20 19 18 16 14 12 11 10 9 8 8 8 8 8 8 8 8 7 7 7 7 6 6 6 6 5 5 5 5 5 5 5 4 4 4 4 3 3 2 3 3 4 5 6 6 6 6 6 6 6 5 5 4 4 4
17 18 19 20 20 18 17 15 13 16 19 20 19 20 21 22 22 23 23 23 24 25 25 24 24 26 26 25 24 23 21 20 19 17 16 14 13 11 10 9 8 7 7 7 7 7 7 7 7 7 7 7 7 7 7 6 6 5 5 4 4 4 4 4 4 4 4 4 4 5 5 6 6 7 7 6 6 6 6 5 5 5 4 4 3
17 18 19 20 20 19 18 15 14 17 19 19 18 19 20 21 22 22 22 22 22 22 23 23 23 24 25 25 25 25 24 21 19 18 16 15 14 12 11 9 8 7 7 6 6 6 6 6 6 6 6 7 7 7 6 6 6 6 5 5 5 5 5 5 5 6 6 6 6 7 7 8 8 8 8 7 7 6 6 6 5 5 4 3 3
16 17 19 19 18 19 18 15 15 17 18 17 17 18 19 20 21 21 22 22 22 21 21 21 22 23 23 23 24 25 25 23 21 19 18 16 14 12 11 10 8 7 5 4 4 4 4 4 5 5 6 6 6 6 6 6 6 6 6 6 6 6 6 6 7 7 7 8 8 9 8 8 8 8 7 7 7 6 6 6 6 5 4 4 3
16 17 18 19 19 19 18 16 14 15 15 14 15 17 18 18 19 20 21 21 21 21 21 21 21 21 21 21 22 23 23 23 22 21 19 18 15 12 10 9 8 7 5 3 2 2 2 2 3 4 5 6 6 6 6 7 7 7 7 7 7 7 7 8 8 8 8 8 8 8 8 8 9 8 8 7 7 7 6 6 6 5 5 4 4
17 18 19 19 19 19 18 17 15 14 13 11 13 16 18 17 18 20 20 19 19 21 22 21 21 20 20 20 20 21 21 21 21 20 19 18 16 14 11 9 7 6 5 4 3 2 2 3 3 4 5 5 6 7 7 7 7 8 8 8 8 8 8 9 9 9 8 8 8 7 8 8 9 8 8 8 7 7 7 7 6 5 5 4 3
16 18 18 19 19 19 18 17 15 13 12 10 12 14 16 17 18 18 18 18 19 20 20 20 20 20 20 19 19 20 20 20 20 20 19 18 17 15 14 11 8 5 4 4 4 4 4 4 5 5 6 6 7 7 7 8 9 9 9 9 9 10 9 9 9 9 9 9 9 9 9 9 8 8 8 8 7 6 6 6 5 4 3 3 2
16 17 17 18 18 18 16 13 12 13 13 13 13 14 16 17 17 16 16 17 18 18 19 19 19 19 19 19 18 18 19 20 20 19 18 18 17 16 15 13 11 8 7 7 7 7 6 7 7 7 8 7 7 7 8 9 10 10 10 10 10 10 9 9 9 10 10 10 10 9 9 8 8 7 7 7 6 5 5 4 3 3 2 2 2
17 17 18 18 17 14 12 11 11 13 14 14 15 15 16 16 16 16 16 17 16 16 18 19 18 17 18 18 17 16 17 18 19 19 18 17 16 16 15 13 11 11 10 9 8 8 7 8 8 9 9 9 9 9 10 10 10 10 9 10 10 9 9 9 10 10 10 9 9 8 8 7 7 7 7 6 5 4 4 3 2 2 2 2 2
17 18 18 17 14 11 10 10 10 10 11 12 13 14 13 13 14 16 17 17 16 16 17 18 17 16 17 18 17 16 16 17 18 19 19 17 16 16 15 14 12 12 12 12 11 10 9 9 10 10 10 10 10 10 10 10 9 9 9 9 9 9 9 10 10 9 9 8 7 7 7 7 7 7 6 5 4 4 3 2 2 2 2 2 3
Wind_Direction
283 287 290 292 295 297 299 301 302 300 297 294 293 292 293 295 295 297 301 303 306 313 316 311 296 277 267 261 255 248 242 242 243 240 241 241 231 223 224 230 234 234 235 235 233 236 239 241 243 243 241 237 235 234 231 234 238 236 234 238 239 235 224 219 225 225 216 213 214 218 224 228 231 236 236 233 234 240 246 249 243 234 227 221 218
285 288 291 293 296 298 300 303 304 302 299 295 294 294 296 298 298 298 300 300 304 312 315 309 297 281 269 260 252 246 244 244 242 240 240 238 232 226 222 226 231 232 233 234 232 234 238 239 240 238 237 239 239 237 236 239 242 238 235 239 241 239 228 220 224 228 222 217 215 219 224 223 230 238 235 229 234 242 247 247 240 236 230 223 220
285 288 291 293 296 298 300 301 302 301 299 295 294 296 299 302 303 301 301 300 304 313 314 306 295 282 269 264 258 250 244 243 242 239 238 233 228 226 225 224 227 230 232 233 231 233 236 238 238 233 233 238 240 238 237 239 240 237 236 237 238 238 231 224 226 230 227 223 220 220 221 217 223 235 234 229 234 241 247 245 238 237 234 227 223
286 288 291 293 295 298 299 300 301 300 298 296 295 298 301 305 306 304 304 303 307 318 318 304 291 281 268 263 262 254 245 243 241 237 236 233 227 224 223 224 224 227 229 229 229 232 236 237 236 232 232 237 240 241 240 238 237 236 236 235 236 236 231 225 228 227 223 223 222 218 219 217 213 222 233 237 239 241 246 244 237 236 235 230 227
289 290 292 294 295 297 297 298 299 299 299 298 298 300 303 305 307 306 306 305 311 323 322 306 287 277 266 259 259 256 248 242 239 234 232 234 233 225 220 221 222 224 227 228 230 232 236 239 237 233 232 234 238 242 244 243 239 239 239 237 236 236 231 226 226 219 215 220 220 213 217 219 210 217 237 245 245 244 244 243 238 235 236 232 230
290 291 292 293 295 296 297 298 299 300 300 300 301 303 304 306 308 307 307 307 314 327 327 310 285 273 265 257 255 255 250 240 237 236 232 231 231 224 218 217 219 222 227 230 232 234 236 240 243 241 238 236 234 237 243 244 240 240 240 236 234 236 234 229 222 213 208 215 221 218 218 223 217 215 227 238 245 249 245 241 237 234 235 233 232
291 291 291 292 294 296 297 299 301 302 302 303 304 305 306 307 309 308 309 309 315 329 333 317 284 271 264 257 253 252 249 241 237 240 239 238 236 229 221 218 218 224 230 233 234 237 239 243 245 247 248 245 239 234 238 241 240 240 240 236 232 233 235 232 225 218 212 215 228 227 216 222 227 215 210 227 242 249 246 242 238 236 236 234 234
291 291 292 293 295 297 299 301 303 303 304 304 304 307 307 308 310 308 309 311 313 326 336 323 287 276 264 250 247 247 243 239 238 240 242 243 242 236 227 222 224 228 232 237 240 239 240 242 243 244 247 250 249 242 240 241 238 238 240 239 233 228 231 234 231 228 223 222 232 226 207 214 229 218 209 226 240 246 249 246 240 239 240 238 236
294 294 295 296 296 298 299 301 303 304 305 306 306 308 308 309 311 309 308 309 309 319 331 321 285 277 263 243 245 246 239 237 238 239 239 238 241 242 231 221 226 233 235 238 244 244 242 242 243 243 244 247 249 247 244 244 241 239 242 243 238 228 228 233 232 230 230 229 229 225 217 223 234 227 222 234 241 243 246 245 241 238 240 240 235
299 298 298 298 298 299 300 302 304 305 307 308 308 310 310 309 311 311 308 308 306 311 326 326 293 274 261 248 254 253 244 239 238 237 238 238 242 247 241 227 222 229 236 238 241 244 245 245 244 243 243 243 244 244 243 243 242 241 243 244 240 232 230 235 234 230 234 234 226 225 227 232 236 233 229 235 238 237 238 242 242 237 236 239 238
302 301 302 302 302 303 303 304 306 307 309 311 311 312 313 311 310 310 307 305 302 303 315 326 310 284 270 266 271 267 255 244 237 235 236 235 236 241 248 246 230 224 232 239 243 243 242 244 244 241 241 242 242 242 242 242 242 241 241 241 239 235 233 235 234 230 233 235 229 228 232 234 236 232 228 232 232 229 234 241 241 238 235 232 235
304 305 306 307 308 309 309 310 312 312 312 314 315 315 314 312 310 309 306 302 298 296 299 310 314 298 282 274 274 276 274 258 244 239 232 228 231 235 245 253 246 235 233 234 241 244 241 241 242 241 242 243 242 242 242 243 242 240 239 238 237 236 234 235 235 230 230 233 231 232 233 234 237 236 236 238 232 225 229 237 237 236 236 228 225
309 311 311 312 314 314 315 316 316 316 316 315 316 316 315 313 310 307 305 301 297 291 287 289 295 298 292 281 271 267 268 263 255 249 239 230 233 239 243 246 247 247 244 237 238 244 243 241 241 240 241 242 242 241 241 241 241 239 238 237 237 236 235 235 235 229 226 228 230 232 232 233 237 241 246 248 239 229 227 232 235 234 234 234 226
315 318 318 319 320 319 320 320 319 320 319 318 317 317 315 314 311 307 303 300 297 292 284 279 279 282 286 287 279 267 259 256 254 251 244 236 235 238 243 245 245 247 249 245 240 239 241 242 243 242 242 241 241 241 240 239 239 238 238 238 237 236 236 236 233 229 227 229 231 234 234 234 234 237 242 242 237 232 227 224 230 231 228 232 228
324 325 325 325 325 323 323 323 323 323 323 322 321 319 317 316 314 311 306 299 296 293 287 279 273 272 272 275 278 275 267 261 257 252 246 242 240 239 241 246 247 247 250 251 247 243 241 240 239 241 242 241 240 242 242 240 239 239 239 238 238 237 237 235 232 229 228 230 233 235 237 239 238 236 238 238 234 233 229 221 222 226 227 230 231
330 329 328 326 325 325 325 325 326 327 327 327 324 322 320 318 316 315 312 304 298 295 292 284 275 270 268 266 268 270 270 268 266 260 251 246 244 242 242 244 247 247 248 251 252 249 246 244 242 241 242 240 237 240 243 243 241 240 239 240 240 239 237 234 231 229 228 230 233 234 236 241 242 238 237 238 237 237 235 229 224 224 224 226 230
331 328 327 325 325 326 327 327 329 330 330 330 327 324 322 320 317 316 315 311 304 297 295 291 283 274 269 266 265 266 266 266 267 266 259 253 249 247 245 245 247 248 247 249 251 251 249 249 249 246 247 247 242 240 243 244 243 241 241 242 242 239 237 236 235 233 231 232 235 237 236 237 239 237 236 237 237 238 238 236 232 228 225 224 227
331 329 328 326 326 327 328 328 329 331 332 331 329 327 325 322 320 318 315 313 309 302 298 295 292 285 277 272 268 265 264 262 261 261 261 258 255 253 250 248 247 249 249 249 251 251 248 248 248 246 248 252 247 241 242 245 244 243 243 242 240 237 237 238 239 238 237 236 237 240 240 239 239 240 240 239 239 239 238 236 234 230 225 223 228
335 334 331 329 329 329 329 328 328 329 331 331 330 329 328 326 325 322 318 315 311 307 303 298 295 292 287 282 277 272 269 264 261 259 258 258 257 255 253 250 248 249 251 251 250 249 247 245 245 244 244 246 244 242 242 244 244 244 244 243 241 239 238 238 239 241 242 242 242 243 244 243 241 241 243 243 242 241 237 234 232 232 229 225 228
342 340 337 334 333 332 331 329 328 329 329 330 331 330 330 329 327 326 324 320 315 310 307 303 299 295 290 285 281 277 274 271 266 262 257 254 254 255 255 252 249 248 250 252 253 253 252 250 249 247 246 245 245 245 244 245 245 245 245 245 245 243 242 241 241 243 244 245 246 244 243 242 241 242 243 244 243 242 238 232 231 234 233 229 229
351 348 346 343 339 338 337 333 330 330 330 330 331 331 329 329 328 327 326 326 324 319 314 310 307 303 297 290 284 280 278 276 273 269 262 254 251 251 253 255 254 250 249 251 253 255 255 255 254 253 250 248 247 246 246 247 247 245 244 245 246 245 245 244 243 244 245 245 245 244 242 241 242 242 243 243 243 242 239 233 231 234 235 232 232
359 356 354 351 347 347 347 344 339 336 335 334 332 331 330 329 327 327 326 327 328 328 324 320 318 314 310 303 294 286 282 279 277 274 269 262 254 248 247 249 251 252 251 252 253 252 249 247 247 249 249 248 246 245 245 246 247 246 244 243 244 244 244 244 243 243 244 244 244 244 244 243 243 242 240 241 242 241 237 233 232 234 238 236 233
2 0 359 357 356 354 355 355 352 347 344 341 337 335 336 333 329 328 327 326 327 329 329 328 326 323 320 316 309 300 291 285 281 277 272 267 262 254 248 244 244 246 248 251 254 255 252 248 245 245 247 246 244 244 244 243 244 245 243 240 241 241 241 242 243 243 244 244 245 246 245 244 244 244 243 242 242 239 235 233 232 235 240 242 237
7 5 4 1 359 359 359 360 360 357 353 349 344 341 341 340 336 333 330 328 327 327 329 329 328 327 325 323 321 316 307 297 290 284 278 273 268 262 256 250 246 243 244 245 248 251 253 252 248 244 245 246 244 243 243 242 242 243 242 240 239 240 240 240 241 243 244 246 247 247 247 247 247 248 246 243 241 239 236 235 235 237 241 245 243
14 12 9 4 2 3 3 1 2 4 0 356 353 350 347 346 345 340 336 334 330 328 327 328 328 329 327 325 324 323 319 312 304 296 291 285 278 270 263 258 253 250 247 247 248 247 248 251 250 243 240 242 242 240 241 242 240 238 238 238 239 241 242 243 244 244 244 244 245 245 245 245 245 244 242 240 238 238 239 240 239 240 242 246 246
21 17 14 10 6 6 5 3 3 6 6 3 0 358 356 353 351 347 343 339 335 332 329 328 327 327 328 328 327 325 323 320 316 310 304 297 289 279 268 261 255 252 249 249 248 245 242 245 247 243 238 238 239 236 235 238 238 236 234 233 235 239 243 246 246 245 244 243 242 242 243 244 243 242 241 239 237 237 239 241 241 241 243 245 246
25 21 19 15 11 8 9 8 7 8 11 11 7 4 3 0 356 353 350 346 342 338 334 331 328 326 326 328 328 327 325 323 322 320 316 308 298 288 277 267 260 254 249 245 241 239 238 238 240 239 237 236 237 236 235 235 237 238 235 232 232 236 240 241 240 241 242 242 241 240 240 241 241 240 238 236 234 234 234 236 237 239 241 242 243
23 22 20 18 15 13 13 13 11 9 9 12 12 9 6 4 1 359 356 353 349 345 341 337 334 330 328 327 328 328 326 325 324 325 326 322 312 299 287 279 272 264 259 252 245 244 246 245 243 243 241 236 233 234 235 235 237 238 237 236 236 239 240 239 236 235 235 237 237 236 234 233 234 233 231 229 230 233 236 238 240 241 243 243 244
17 17 18 17 16 16 16 16 14 9 6 7 9 8 6 5 2 0 359 356 352 349 346 342 338 334 330 326 326 326 325 324 323 323 326 330 327 315 300 290 284 277 271 266 258 249 247 245 245 246 243 238 235 235 236 237 236 236 236 236 238 240 240 240 239 236 233 234 235 233 231 230 230 228 226 228 233 239 243 244 243 241 241 241 243
13 11 13 14 14 15 15 13 12 11 7 4 3 2 2 1 360 359 358 357 355 352 349 345 340 337 333 328 326 324 323 323 323 322 324 326 327 326 318 304 294 285 278 274 269 263 255 248 244 241 239 239 239 241 243 243 241 240 239 241 243 244 243 243 242 239 236 236 236 234 231 229 227 225 228 235 242 246 246 243 239 237 238 240 243
10 8 8 8 9 11 11 9 7 6 6 4 1 358 356 355 355 356 357 357 356 354 352 349 344 340 335 331 328 325 323 322 322 321 323 324 323 325 325 319 310 298 287 278 272 268 265 261 255 249 243 241 240 241 243 244 244 244 245 247 248 247 246 244 242 241 241 241 240 238 233 230 229 231 237 243 246 245 243 241 239 240 243 246 248
6 7 7 5 5 6 6 4 2 360 0 360 357 354 352 352 353 353 354 355 355 354 354 352 348 342 338 334 330 326 324 322 319 317 318 321 322 324 324 322 321 315 304 294 284 275 268 264 260 256 252 248 245 244 245 244 245 246 247 248 248 247 246 246 245 245 245 245 244 242 240 239 239 240 240 241 242 242 243 244 246 248 248 246 243
4 7 7 6 5 4 1 359 358 356 354 354 353 351 349 350 351 350 349 350 351 351 352 353 350 346 343 338 333 328 324 321 318 314 313 314 317 321 323 324 324 323 321 316 308 299 287 276 267 261 257 254 251 250 249 248 248 247 247 247 248 248 248 248 247 247 246 245 243 243 242 242 241 240 240 243 245 247 246 245 242 239 234 230 227
3 8 8 7 6 4 359 354 352 350 349 349 350 350 346 345 345 344 345 348 350 349 350 351 349 348 346 342 337 334 329 323 318 313 308 308 308 311 317 321 322 324 327 327 326 322 315 303 289 275 267 262 259 256 254 252 251 250 249 248 248 247 246 245 243 239 236 233 233 234 235 238 240 242 245 247 245 241 234 224 214 208 207 212 223
3 7 6 4 3 1 356 350 345 345 345 345 345 346 344 341 340 340 343 349 351 349 348 348 347 347 346 343 340 338 334 328 322 316 308 302 299 300 306 312 315 321 325 326 327 327 324 319 312 299 286 275 267 262 259 257 256 254 252 250 247 243 238 234 230 226 224 226 229 232 233 234 235 234 231 225 215 204 194 186 184 190 204 225 244
5 6 1 359 359 356 351 345 341 342 345 344 343 344 343 340 340 341 343 347 350 349 348 347 346 345 345 343 342 340 337 332 326 319 311 301 293 291 297 302 307 313 318 320 323 326 326 324 320 315 308 297 283 270 261 255 252 250 248 244 238 232 228 225 223 222 222 221 220 216 211 205 198 190 183 177 172 170 169 174 189 214 238 255 264
4 4 358 356 358 357 349 342 340 344 347 347 344 343 342 340 341 342 342 343 347 350 349 347 345 344 344 344 344 343 340 335 329 323 317 308 297 290 287 290 296 304 309 313 316 320 321 321 318 316 317 314 303 287 260 239 231 227 223 219 215 209 204 200 196 192 188 183 177 172 167 163 159 157 156 155 157 164 178 203 233 250 258 264 267
359 3 359 357 358 357 350 345 346 349 349 346 342 340 339 340 341 342 340 341 347 352 352 347 344 344 345 347 349 348 343 338 334 329 324 315 303 292 285 281 283 290 298 303 305 305 306 310 309 306 310 307 293 272 219 193 186 185 183 180 176 173 169 165 161 158 155 154 152 149 147 145 144 144 148 155 171 204 231 246 255 260 263 265 266
354 358 359 357 355 354 354 354 353 350 346 343 341 339 339 340 341 342 342 342 347 353 354 350 347 347 347 349 352 351 347 343 340 336 328 317 305 295 285 277 274 277 281 284 285 285 286 289 289 285 277 259 237 221 202 186 175 169 164 158 155 152 149 147 147 145 143 142 141 139 139 140 143 152 172 202 227 244 254 257 259 262 263 263 264
352 353 354 354 353 355 358 357 353 349 346 343 341 340 340 342 344 345 345 343 345 351 354 352 350 350 350 350 353 353 350 347 346 344 336 323 313 305 294 281 273 273 274 273 272 274 273 272 270 267 260 241 222 213 205 195 183 172 163 156 150 147 143 140 139 138 138 139 140 141 147 156 174 202 225 243 251 254 257 258 258 259 259 259 261
351 351 353 355 355 355 356 354 352 351 349 346 344 344 344 346 348 349 347 345 344 348 353 354 353 353 353 353 353 354 352 350 350 350 346 336 325 318 309 295 280 276 276 275 272 270 268 266 264 261 256 247 235 226 216 206 194 182 172 164 155 150 146 144 142 144 147 150 153 163 183 208 232 244 249 253 254 253 251 251 251 251 252 255 259
349 351 354 357 356 353 352 351 351 351 349 347 348 349 349 349 350 350 350 348 345 345 350 355 355 353 353 354 355 354 353 354 354 353 351 347 339 330 323 313 298 287 281 277 273 269 267 265 262 259 254 245 238 234 229 220 210 201 189 179 172 167 164 162 162 165 170 180 198 223 242 252 258 258 255 250 246 243 242 241 239 238 238 242 252
346 349 353 357 357 356 355 353 349 347 349 351 352 351 349 350 351 351 350 349 346 344 347 352 355 353 351 352 354 354 355 357 356 354 351 349 345 339 333 326 316 305 295 285 278 273 267 262 257 252 247 240 235 235 233 228 221 215 208 200 193 188 185 187 192 197 207 221 235 248 255 256 253 250 245 238 232 228 228 227 223 222 222 223 235
347 351 353 356 358 358 356 352 348 348 350 354 355 351 348 348 350 350 349 349 348 346 345 348 352 353 352 352 353 355 357 358 357 355 354 351 346 342 339 334 327 320 311 298 286 274 263 256 250 242 236 236 236 237 236 232 227 223 218 214 212 209 209 214 222 229 235 241 244 244 242 240 237 232 227 221 216 215 216 216 217 219 223 228 244
347 350 351 354 357 358 356 353 352 350 348 349 352 351 348 346 347 347 348 349 348 347 345 347 350 352 353 353 353 355 357 357 355 354 355 353 349 347 345 342 337 333 326 313 300 285 264 248 237 226 222 224 228 228 228 227 226 226 226 226 228 229 230 235 241 245 248 248 244 237 230 226 223 222 219 215 212 212 216 222 225 228 233 242 250
344 347 350 352 355 356 356 354 352 347 342 344 350 351 348 346 344 345 347 349 347 345 346 347 349 351 353 353 352 353 353 353 351 350 350 350 351 350 347 344 344 344 342 333 313 293 274 253 237 227 223 223 222 221 223 226 228 231 236 240 243 246 249 252 252 250 246 243 240 236 228 221 217 214 214 215 216 218 223 229 229 229 233 237 238
343 346 349 350 352 355 356 354 351 347 341 339 343 346 347 345 343 344 346 347 345 344 345 346 348 350 352 351 350 350 351 350 348 346 346 347 348 348 345 339 337 340 339 332 316 284 268 265 256 246 242 238 232 230 232 234 238 242 245 249 254 258 258 256 254 248 240 233 227 223 220 220 220 217 215 216 217 218 222 226 227 228 234 241 246
343 344 345 346 349 353 354 351 350 348 342 335 336 340 343 342 341 342 343 343 343 343 343 342 343 347 351 352 350 349 350 351 349 346 345 344 343 342 342 337 327 310 294 290 286 275 265 262 262 261 260 256 252 252 252 251 251 252 254 257 259 257 251 246 241 236 228 219 214 211 212 215 216 215 214 215 215 217 221 224 226 230 238 255 275
338 339 341 341 345 349 350 348 346 345 341 337 337 338 337 337 338 339 339 340 341 340 338 338 340 342 347 352 354 350 349 350 349 346 343 341 339 339 339 335 325 310 291 276 269 264 261 260 260 261 261 259 258 259 260 260 261 263 263 260 254 247 239 231 226 222 215 208 207 209 210 209 208 209 212 213 212 213 218 223 229 237 251 276 292
333 336 336 334 335 338 340 338 338 339 339 338 338 336 334 334 337 338 337 339 339 334 332 335 338 337 339 346 351 348 344 345 346 346 343 340 336 335 333 328 320 313 305 296 285 275 269 265 262 260 259 259 260 261 262 264 265 265 261 253 243 235 230 225 221 216 210 206 207 210 211 209 207 207 208 207 207 209 215 224 239 252 263 273 278
329 330 330 329 328 327 331 333 334 337 338 337 335 335 334 335 338 338 337 337 337 333 330 331 333 332 331 336 341 343 341 340 342 345 344 340 335 331 329 324 318 313 308 304 297 290 283 277 273 272 270 268 267 266 266 266 263 258 251 243 234 229 228 226 221 216 212 211 213 214 213 212 209 205 202 203 206 212 217 221 231 243 248 246 243
Height
3128 3127 3126 3126 3125 3125 3124 3123 3122 3121 3120 3119 3117 3116 3114 3113 3111 3109 3108 3107 3104 3101 3098 3095 3093 3092 3092 3092 3092 3092 3094 3095 3095 3094 3093 3094 3095 3094 3095 3098 3100 3102 3104 3105 3106 3107 3107 3108 3110 3111 3112 3113 3114 3116 3117 3118 3118 3118 3119 3120 3120 3122 3125 3128 3128 3129 3131 3133 3134 3135 3135 3136 3136 3137 3137 3139 3140 3140 3140 3141 3142 3142 3143 3144 3145
3126 3125 3124 3124 3123 3123 3122 3121 3120 3119 3118 3117 3115 3114 3112 3111 3109 3107 3106 3104 3102 3099 3095 3091 3089 3088 3089 3090 3090 3090 3091 3092 3092 3092 3092 3093 3094 3093 3093 3096 3098 3100 3101 3102 3104 3105 3105 3106 3107 3109 3110 3110 3112 3114 3115 3116 3115 3116 3117 3118 3118 3118 3122 3125 3127 3128 3129 3131 3132 3133 3133 3134 3135 3135 3136 3137 3138 3139 3139 3140 3141 3141 3141 3142 3143
3124 3123 3123 3122 3121 3121 3120 3119 3118 3117 3116 3115 3113 3112 3110 3108 3107 3105 3103 3101 3099 3096 3091 3087 3084 3084 3085 3087 3088 3088 3089 3089 3088 3089 3090 3091 3091 3091 3091 3093 3095 3097 3098 3100 3101 3102 3103 3103 3104 3106 3107 3108 3109 3111 3113 3114 3114 3114 3115 3116 3116 3117 3119 3123 3125 3127 3128 3129 3131 3131 3131 3132 3134 3133 3133 3135 3137 3137 3137 3138 3139 3139 3140 3141 3142
3122 3121 3121 3120 3119 3118 3118 3117 3116 3115 3114 3112 3111 3109 3108 3106 3104 3102 3100 3099 3096 3093 3087 3083 3081 3081 3082 3084 3085 3086 3087 3087 3086 3087 3088 3088 3089 3088 3089 3090 3092 3094 3095 3097 3098 3099 3100 3100 3100 3102 3105 3105 3106 3108 3110 3111 3112 3113 3114 3114 3115 3115 3116 3120 3123 3125 3127 3128 3129 3128 3128 3130 3133 3132 3132 3133 3135 3136 3136 3136 3137 3138 3138 3139 3140
3120 3119 3118 3118 3117 3116 3115 3114 3113 3112 3111 3110 3108 3107 3105 3103 3102 3100 3098 3096 3094 3090 3084 3080 3079 3079 3079 3081 3082 3083 3084 3085 3085 3085 3086 3087 3087 3087 3087 3087 3089 3091 3092 3094 3096 3097 3098 3098 3097 3099 3102 3103 3104 3106 3107 3108 3109 3110 3111 3112 3113 3113 3114 3117 3120 3123 3124 3126 3127 3126 3125 3127 3130 3131 3130 3131 3133 3134 3134 3134 3135 3136 3136 3137 3138
3118 3117 3116 3115 3114 3114 3113 3112 3111 3109 3108 3107 3106 3104 3103 3101 3099 3097 3095 3093 3092 3088 3082 3078 3077 3077 3077 3078 3080 3081 3081 3082 3083 3083 3084 3085 3086 3085 3084 3084 3086 3088 3090 3092 3093 3095 3096 3096 3096 3097 3099 3101 3103 3104 3105 3105 3106 3107 3108 3109 3110 3111 3112 3115 3118 3121 3122 3123 3125 3125 3125 3126 3128 3128 3129 3129 3130 3132 3132 3133 3133 3134 3134 3135 3136
3116 3115 3114 3113 3112 3111 3110 3109 3108 3107 3105 3104 3103 3101 3100 3098 3096 3094 3092 3091 3089 3086 3081 3077 3076 3076 3075 3076 3078 3079 3079 3080 3081 3082 3082 3083 3084 3083 3081 3081 3083 3086 3088 3090 3091 3093 3094 3094 3094 3095 3096 3098 3099 3102 3103 3104 3105 3106 3105 3105 3108 3110 3111 3113 3116 3118 3119 3121 3122 3123 3124 3124 3125 3127 3128 3128 3128 3130 3131 3131 3131 3132 3132 3133 3134
3113 3112 3112 3111 3110 3109 3108 3106 3105 3104 3103 3102 3100 3099 3097 3095 3094 3092 3090 3088 3086 3084 3082 3079 3076 3074 3073 3074 3076 3076 3077 3079 3079 3080 3081 3082 3083 3082 3080 3080 3082 3084 3086 3088 3089 3090 3091 3092 3092 3093 3094 3095 3095 3098 3100 3101 3103 3104 3103 3103 3107 3110 3110 3112 3114 3115 3116 3118 3119 3121 3122 3122 3122 3124 3126 3126 3126 3128 3129 3129 3130 3129 3130 3131 3132
3111 3110 3109 3108 3107 3106 3105 3104 3103 3102 3100 3099 3098 3096 3094 3093 3091 3089 3087 3086 3084 3083 3080 3078 3076 3073 3072 3073 3073 3074 3075 3076 3077 3078 3080 3081 3082 3081 3080 3079 3081 3083 3084 3086 3087 3088 3088 3089 3090 3091 3092 3093 3094 3095 3097 3099 3100 3100 3100 3103 3106 3108 3108 3110 3112 3113 3114 3115 3116 3117 3119 3119 3119 3121 3123 3123 3125 3126 3126 3127 3127 3128 3128 3128 3129
3109 3108 3107 3106 3105 3104 3103 3102 3101 3099 3098 3096 3095 3094 3092 3091 3089 3087 3085 3083 3082 3081 3078 3076 3074 3072 3071 3072 3073 3073 3073 3075 3076 3078 3080 3081 3081 3080 3079 3077 3078 3080 3082 3084 3085 3085 3086 3086 3088 3089 3090 3091 3092 3093 3094 3096 3097 3098 3099 3101 3103 3104 3105 3107 3109 3111 3112 3113 3114 3114 3115 3116 3117 3118 3120 3121 3123 3124 3124 3124 3125 3126 3126 3126 3127
3107 3106 3105 3104 3103 3102 3100 3099 3098 3097 3096 3094 3093 3091 3090 3088 3087 3085 3083 3081 3080 3079 3077 3075 3074 3072 3071 3072 3072 3072 3073 3074 3076 3077 3078 3079 3079 3080 3079 3076 3076 3077 3079 3081 3082 3083 3084 3084 3085 3086 3088 3089 3090 3091 3092 3093 3094 3095 3096 3098 3100 3101 3102 3103 3105 3108 3109 3110 3112 3112 3113 3114 3114 3116 3117 3119 3120 3122 3122 3122 3123 3123 3124 3125 3125
3105 3104 3103 3102 3100 3099 3098 3097 3096 3095 3093 3092 3090 3089 3088 3086 3085 3083 3082 3080 3078 3077 3076 3075 3074 3072 3071 3071 3071 3072 3072 3073 3075 3076 3077 3078 3077 3078 3078 3078 3076 3076 3076 3078 3080 3080 3081 3082 3082 3084 3085 3086 3087 3088 3089 3090 3091 3092 3093 3095 3096 3098 3099 3100 3102 3104 3106 3107 3108 3109 3110 3111 3112 3113 3114 3116 3117 3119 3120 3120 3121 3121 3122 3123 3124
3104 3103 3101 3100 3098 3097 3096 3094 3093 3092 3091 3090 3088 3087 3085 3084 3083 3082 3080 3078 3077 3075 3075 3074 3074 3073 3071 3070 3071 3072 3072 3073 3074 3074 3075 3076 3075 3076 3077 3077 3077 3076 3076 3076 3077 3078 3079 3079 3080 3081 3082 3083 3084 3085 3086 3087 3088 3089 3090 3091 3093 3095 3096 3097 3099 3101 3102 3103 3104 3105 3107 3108 3110 3111 3112 3113 3115 3117 3117 3118 3118 3119 3120 3121 3123
3102 3101 3100 3099 3097 3096 3094 3093 3091 3090 3089 3087 3086 3084 3083 3082 3081 3079 3078 3077 3075 3074 3073 3072 3072 3072 3071 3070 3070 3070 3071 3071 3071 3072 3073 3073 3074 3074 3075 3075 3075 3075 3075 3075 3074 3075 3076 3077 3077 3078 3079 3080 3081 3082 3083 3084 3085 3086 3087 3088 3089 3091 3093 3094 3096 3097 3098 3099 3100 3102 3103 3105 3106 3107 3109 3111 3113 3114 3115 3116 3116 3117 3118 3119 3120
3101 3100 3099 3098 3096 3095 3093 3092 3090 3089 3087 3085 3084 3082 3080 3079 3078 3077 3076 3075 3073 3072 3070 3070 3070 3070 3070 3069 3069 3069 3070 3070 3070 3070 3071 3072 3072 3072 3073 3073 3073 3073 3073 3073 3073 3072 3072 3073 3074 3075 3076 3077 3078 3079 3080 3081 3082 3083 3084 3085 3086 3087 3089 3091 3092 3094 3095 3096 3097 3099 3101 3102 3103 3104 3106 3108 3110 3111 3112 3113 3114 3115 3116 3116 3117
3100 3099 3098 3097 3095 3094 3093 3091 3089 3088 3086 3084 3082 3080 3079 3077 3075 3074 3073 3072 3071 3069 3068 3067 3067 3067 3067 3067 3067 3067 3068 3068 3068 3068 3068 3069 3069 3070 3070 3070 3070 3071 3071 3071 3072 3070 3069 3070 3072 3073 3073 3073 3075 3076 3077 3078 3079 3081 3081 3081 3083 3085 3086 3087 3089 3090 3091 3093 3094 3095 3098 3099 3100 3102 3103 3105 3106 3108 3109 3110 3111 3112 3112 3113 3114
3099 3098 3096 3095 3094 3093 3092 3090 3088 3087 3085 3083 3081 3079 3077 3076 3074 3072 3071 3070 3069 3067 3066 3065 3064 3063 3063 3063 3064 3064 3064 3065 3065 3065 3065 3065 3065 3066 3067 3067 3067 3068 3067 3068 3069 3068 3068 3069 3070 3071 3071 3071 3072 3074 3075 3076 3077 3077 3077 3078 3080 3082 3083 3084 3085 3087 3088 3089 3090 3092 3094 3095 3097 3098 3100 3101 3103 3104 3106 3107 3108 3108 3109 3110 3112
3098 3096 3095 3094 3093 3092 3090 3089 3087 3085 3084 3082 3080 3078 3076 3074 3073 3071 3069 3068 3066 3065 3064 3062 3061 3060 3060 3059 3059 3060 3060 3061 3061 3061 3062 3062 3062 3062 3063 3063 3064 3064 3064 3065 3065 3065 3066 3068 3068 3068 3069 3070 3071 3072 3073 3074 3074 3074 3074 3076 3077 3079 3080 3081 3082 3084 3085 3086 3087 3088 3090 3091 3093 3094 3095 3097 3099 3100 3101 3102 3104 3104 3104 3106 3108
3097 3096 3094 3093 3092 3090 3089 3087 3086 3084 3082 3081 3079 3077 3075 3073 3071 3069 3068 3066 3065 3063 3062 3060 3059 3058 3057 3056 3055 3056 3056 3057 3057 3057 3057 3058 3058 3059 3059 3059 3060 3060 3061 3062 3061 3061 3063 3065 3066 3066 3067 3068 3069 3069 3070 3071 3071 3071 3072 3073 3074 3076 3077 3078 3079 3080 3082 3083 3084 3085 3086 3088 3089 3091 3092 3093 3094 3096 3096 3097 3100 3101 3100 3102 3103
3097 3095 3093 3092 3090 3089 3087 3086 3084 3082 3081 3079 3077 3075 3073 3072 3070 3068 3066 3065 3063 3062 3060 3058 3057 3055 3054 3053 3052 3052 3052 3052 3052 3053 3053 3053 3054 3054 3054 3055 3056 3056 3057 3057 3057 3058 3062 3064 3063 3063 3064 3065 3066 3066 3067 3068 3068 3069 3069 3070 3071 3073 3074 3075 3077 3078 3079 3080 3080 3082 3083 3084 3086 3087 3088 3089 3090 3091 3091 3093 3096 3097 3096 3098 3098
3096 3094 3092 3091 3089 3088 3086 3084 3083 3081 3079 3077 3076 3074 3072 3070 3069 3067 3065 3063 3062 3060 3058 3057 3055 3053 3052 3051 3050 3049 3048 3048 3048 3048 3048 3049 3049 3050 3050 3051 3051 3052 3053 3053 3053 3055 3059 3060 3060 3060 3060 3061 3062 3063 3064 3064 3064 3065 3066 3067 3068 3070 3071 3072 3073 3074 3075 3076 3077 3078 3079 3081 3082 3083 3084 3085 3086 3086 3087 3089 3091 3092 3092 3094 3095
3095 3093 3092 3090 3088 3086 3085 3083 3081 3080 3078 3076 3074 3073 3071 3069 3067 3066 3064 3062 3060 3058 3057 3055 3053 3052 3050 3049 3047 3046 3045 3045 3044 3044 3044 3044 3045 3045 3046 3046 3047 3047 3048 3048 3049 3050 3053 3054 3055 3055 3056 3057 3058 3059 3060 3061 3060 3061 3063 3064 3065 3066 3067 3068 3069 3070 3072 3073 3074 3075 3076 3077 3078 3079 3080 3081 3082 3083 3084 3085 3087 3088 3089 3091 3092
3094 3093 3091 3089 3087 3085 3084 3082 3080 3078 3076 3075 3073 3071 3070 3068 3066 3065 3063 3061 3059 3057 3055 3054 3052 3050 3049 3047 3045 3044 3043 3042 3041 3041 3040 3040 3040 3041 3041 3042 3042 3043 3043 3044 3044 3045 3047 3048 3049 3050 3051 3053 3054 3055 3056 3056 3056 3057 3059 3060 3061 3062 3063 3065 3066 3067 3068 3069 3070 3071 3072 3073 3074 3076 3077 3078 3079 3079 3080 3081 3083 3084 3085 3087 3088
3094 3092 3090 3088 3086 3084 3083 3081 3080 3078 3076 3074 3072 3070 3069 3067 3065 3063 3061 3060 3058 3056 3054 3053 3051 3049 3047 3046 3044 3042 3041 3040 3039 3038 3037 3037 3036 3037 3037 3037 3038 3038 3039 3039 3040 3040 3041 3043 3045 3046 3046 3047 3049 3051 3052 3052 3052 3053 3055 3056 3057 3058 3059 3061 3062 3063 3065 3066 3067 3068 3069 3070 3072 3073 3074 3075 3075 3076 3077 3079 3080 3081 3082 3083 3084
3093 3092 3090 3088 3086 3084 3082 3080 3079 3077 3075 3073 3071 3069 3068 3066 3064 3062 3060 3058 3056 3055 3053 3051 3050 3048 3046 3045 3043 3041 3039 3038 3036 3035 3035 3034 3033 3033 3033 3033 3034 3034 3034 3035 3036 3036 3037 3038 3040 3042 3042 3043 3044 3047 3048 3048 3049 3050 3051 3052 3052 3054 3056 3057 3058 3060 3061 3062 3063 3064 3065 3067 3068 3069 3070 3071 3072 3074 3075 3076 3077 3078 3078 3079 3080
3093 3092 3090 3088 3086 3084 3082 3080 3078 3077 3075 3073 3070 3069 3067 3065 3064 3062 3060 3058 3056 3054 3052 3050 3049 3047 3045 3044 3042 3040 3038 3037 3035 3034 3033 3032 3031 3031 3031 3031 3030 3030 3030 3031 3032 3033 3033 3034 3035 3037 3038 3039 3040 3041 3044 3045 3045 3046 3047 3048 3049 3050 3052 3054 3055 3057 3057 3058 3059 3060 3061 3062 3064 3065 3066 3068 3069 3070 3071 3072 3073 3074 3075 3075 3076
3094 3092 3090 3088 3086 3084 3082 3080 3078 3076 3075 3073 3071 3069 3067 3065 3064 3062 3060 3057 3055 3053 3051 3050 3048 3046 3044 3043 3041 3040 3038 3036 3035 3033 3032 3030 3030 3029 3029 3029 3028 3028 3028 3028 3028 3029 3030 3031 3032 3033 3034 3036 3036 3037 3039 3041 3042 3043 3044 3045 3045 3047 3048 3050 3051 3052 3053 3054 3055 3057 3058 3059 3060 3061 3062 3063 3065 3065 3066 3067 3068 3069 3071 3071 3072
3094 3092 3090 3089 3087 3085 3083 3081 3078 3077 3075 3073 3072 3070 3067 3065 3063 3062 3059 3057 3055 3053 3051 3049 3047 3045 3043 3042 3041 3039 3038 3036 3034 3033 3031 3030 3028 3028 3027 3027 3027 3026 3026 3025 3025 3026 3026 3027 3028 3029 3031 3032 3033 3034 3035 3037 3038 3039 3041 3041 3042 3043 3044 3045 3046 3047 3048 3050 3051 3052 3053 3054 3055 3056 3057 3058 3059 3061 3062 3063 3064 3065 3066 3067 3068
3094 3093 3091 3089 3087 3085 3084 3082 3080 3078 3075 3073 3072 3070 3068 3066 3064 3061 3059 3057 3055 3053 3051 3049 3047 3045 3043 3041 3040 3039 3037 3036 3034 3033 3031 3029 3028 3027 3026 3025 3025 3025 3025 3024 3024 3024 3024 3024 3025 3026 3027 3029 3030 3031 3032 3033 3034 3035 3036 3037 3038 3039 3040 3041 3042 3042 3043 3044 3045 3046 3047 3048 3050 3051 3052 3053 3055 3057 3058 3059 3060 3061 3062 3062 3063
3095 3093 3092 3090 3088 3086 3085 3083 3081 3079 3077 3074 3072 3070 3068 3066 3064 3062 3060 3057 3055 3053 3051 3048 3046 3044 3042 3040 3039 3038 3036 3035 3034 3033 3031 3030 3028 3027 3025 3025 3024 3024 3023 3023 3023 3022 3022 3022 3022 3023 3024 3025 3027 3028 3029 3030 3031 3032 3033 3034 3035 3036 3036 3037 3038 3039 3039 3040 3040 3041 3042 3043 3045 3047 3048 3050 3051 3052 3053 3054 3055 3056 3057 3058 3060
3096 3094 3092 3090 3088 3087 3085 3083 3081 3080 3078 3076 3074 3071 3068 3065 3064 3062 3060 3057 3055 3053 3050 3048 3046 3044 3042 3040 3038 3037 3036 3034 3033 3032 3031 3030 3029 3027 3026 3024 3023 3023 3022 3022 3022 3021 3021 3020 3021 3021 3022 3023 3024 3025 3026 3027 3028 3029 3030 3031 3032 3033 3034 3035 3036 3037 3038 3039 3039 3040 3041 3042 3043 3044 3046 3047 3048 3048 3049 3050 3052 3053 3054 3055 3056
3096 3094 3092 3091 3089 3087 3085 3083 3082 3080 3078 3076 3074 3072 3069 3066 3063 3061 3059 3057 3055 3053 3051 3048 3046 3043 3041 3039 3038 3036 3035 3034 3032 3031 3030 3029 3028 3027 3026 3024 3023 3022 3021 3021 3020 3020 3019 3019 3019 3020 3020 3021 3022 3022 3023 3024 3025 3026 3027 3028 3029 3030 3031 3032 3033 3034 3035 3037 3038 3039 3040 3040 3041 3042 3043 3044 3045 3046 3047 3048 3049 3050 3051 3052 3053
3095 3094 3093 3091 3089 3087 3085 3083 3082 3080 3078 3076 3074 3072 3070 3067 3064 3061 3059 3056 3054 3052 3050 3048 3046 3044 3041 3039 3037 3036 3034 3033 3031 3030 3029 3028 3027 3026 3025 3024 3023 3022 3021 3020 3019 3019 3018 3018 3018 3018 3018 3019 3019 3020 3021 3021 3022 3023 3024 3025 3026 3027 3028 3029 3030 3031 3032 3033 3035 3035 3036 3037 3038 3040 3041 3041 3042 3043 3044 3045 3046 3047 3048 3049 3051
3095 3094 3093 3092 3090 3088 3086 3084 3082 3081 3079 3076 3074 3072 3070 3067 3065 3062 3060 3057 3054 3052 3049 3047 3045 3043 3041 3039 3037 3035 3033 3032 3030 3029 3028 3028 3027 3026 3025 3024 3023 3022 3021 3020 3019 3019 3018 3018 3017 3017 3017 3017 3018 3018 3019 3019 3020 3021 3022 3022 3023 3024 3025 3026 3027 3028 3029 3030 3031 3032 3033 3035 3036 3037 3037 3038 3039 3040 3041 3042 3044 3045 3047 3048 3049
3095 3094 3093 3092 3090 3088 3086 3084 3083 3081 3079 3077 3075 3073 3070 3068 3065 3062 3060 3057 3055 3052 3050 3047 3045 3043 3041 3039 3036 3034 3033 3031 3030 3028 3027 3027 3026 3025 3025 3024 3023 3022 3021 3020 3019 3019 3018 3018 3017 3017 3017 3017 3017 3017 3017 3018 3018 3019 3019 3020 3021 3022 3023 3023 3024 3025 3026 3028 3029 3030 3031 3032 3033 3033 3035 3036 3037 3039 3040 3042 3043 3044 3046 3047 3048
3096 3095 3093 3092 3090 3088 3086 3084 3083 3081 3079 3077 3074 3072 3070 3068 3065 3063 3060 3057 3055 3052 3050 3048 3046 3043 3041 3038 3036 3034 3032 3030 3029 3028 3027 3026 3025 3025 3024 3023 3023 3022 3022 3021 3020 3019 3019 3018 3018 3017 3017 3017 3017 3017 3017 3017 3017 3017 3018 3019 3019 3020 3021 3022 3022 3023 3024 3025 3026 3027 3029 3030 3031 3032 3033 3035 3037 3038 3040 3041 3042 3044 3045 3046 3047
3096 3095 3093 3092 3090 3088 3086 3084 3082 3080 3078 3076 3074 3072 3070 3068 3065 3063 3060 3057 3055 3052 3050 3047 3045 3043 3041 3038 3036 3034 3032 3030 3028 3027 3026 3025 3025 3024 3024 3023 3023 3022 3022 3022 3021 3020 3020 3019 3019 3018 3018 3018 3018 3018 3017 3017 3017 3017 3018 3018 3019 3019 3020 3021 3021 3022 3023 3024 3025 3027 3028 3029 3030 3032 3033 3035 3037 3038 3039 3040 3042 3043 3044 3045 3045
3095 3094 3093 3091 3089 3088 3086 3084 3082 3080 3078 3076 3074 3072 3070 3068 3065 3063 3060 3057 3055 3052 3050 3047 3045 3043 3040 3038 3036 3034 3032 3030 3028 3026 3026 3025 3024 3024 3023 3023 3022 3022 3022 3022 3022 3021 3021 3020 3020 3020 3019 3019 3019 3019 3018 3018 3018 3018 3018 3019 3019 3019 3020 3021 3021 3022 3023 3024 3026 3027 3028 3029 3031 3032 3034 3035 3036 3038 3039 3040 3041 3041 3042 3043 3043
3094 3093 3092 3090 3088 3087 3085 3083 3081 3079 3078 3076 3074 3072 3070 3067 3065 3063 3060 3058 3055 3052 3050 3047 3045 3042 3040 3038 3036 3034 3032 3030 3028 3026 3025 3024 3024 3023 3023 3022 3022 3022 3022 3022 3022 3022 3021 3021 3021 3021 3020 3020 3020 3020 3020 3020 3020 3020 3020 3020 3020 3021 3021 3022 3022 3023 3024 3025 3026 3027 3028 3030 3031 3032 3034 3035 3036 3037 3038 3039 3039 3040 3040 3041 3041
3094 3092 3091 3089 3087 3085 3083 3082 3080 3079 3077 3076 3074 3072 3069 3067 3065 3062 3060 3057 3055 3053 3050 3048 3045 3043 3041 3038 3036 3034 3032 3030 3028 3026 3025 3024 3023 3023 3022 3022 3022 3022 3022 3022 3022 3021 3021 3022 3021 3021 3021 3021 3021 3021 3021 3021 3021 3021 3021 3021 3022 3022 3022 3023 3024 3024 3025 3026 3027 3028 3029 3030 3031 3032 3033 3034 3035 3036 3037 3037 3038 3038 3038 3039 3039
3093 3092 3090 3088 3086 3085 3083 3081 3080 3078 3076 3075 3073 3071 3069 3067 3065 3062 3060 3057 3055 3053 3051 3048 3046 3043 3041 3039 3036 3034 3032 3031 3029 3027 3026 3025 3024 3023 3022 3022 3021 3021 3021 3021 3021 3021 3021 3021 3021 3021 3022 3022 3022 3022 3022 3022 3022 3022 3022 3022 3022 3023 3023 3024 3025 3025 3026 3027 3028 3028 3029 3030 3031 3032 3033 3033 3034 3035 3035 3036 3036 3037 3037 3037 3037
3093 3091 3090 3088 3086 3085 3083 3081 3079 3078 3076 3074 3072 3071 3068 3066 3064 3062 3060 3058 3055 3053 3051 3049 3046 3044 3041 3039 3037 3035 3033 3031 3029 3028 3026 3025 3024 3023 3022 3022 3021 3021 3021 3021 3021 3020 3020 3021 3021 3021 3021 3022 3022 3022 3022 3022 3023 3023 3023 3023 3023 3024 3024 3024 3025 3026 3026 3027 3028 3029 3029 3030 3031 3031 3032 3033 3033 3034 3034 3035 3035 3035 3036 3036 3036
3092 3090 3089 3087 3086 3084 3083 3081 3080 3078 3076 3074 3072 3070 3068 3066 3064 3062 3060 3058 3056 3054 3051 3049 3047 3044 3042 3040 3037 3035 3033 3032 3030 3029 3027 3026 3025 3024 3023 3022 3022 3021 3021 3020 3020 3020 3020 3020 3020 3020 3021 3021 3022 3022 3022 3022 3022 3023 3023 3023 3024 3024 3025 3025 3025 3026 3027 3027 3028 3029 3029 3030 3030 3031 3031 3032 3032 3033 3033 3034 3034 3034 3035 3035 3035
3090 3089 3088 3086 3085 3083 3082 3081 3079 3077 3075 3073 3071 3069 3068 3066 3064 3063 3061 3059 3056 3054 3052 3050 3048 3046 3043 3040 3038 3036 3034 3033 3031 3029 3028 3027 3025 3024 3023 3023 3022 3021 3021 3020 3020 3020 3019 3019 3019 3020 3020 3021 3021 3021 3022 3022 3022 3023 3023 3023 3024 3024 3025 3025 3025 3026 3027 3027 3028 3028 3029 3029 3030 3030 3031 3031 3032 3032 3033 3033 3033 3034 3034 3034 3034
3090 3088 3087 3086 3084 3083 3081 3080 3078 3076 3074 3073 3071 3070 3068 3066 3064 3063 3061 3059 3057 3055 3052 3050 3049 3046 3044 3042 3040 3037 3036 3034 3032 3030 3029 3027 3026 3025 3024 3023 3022 3022 3021 3021 3020 3020 3020 3020 3020 3020 3020 3020 3021 3021 3022 3022 3022 3023 3023 3024 3024 3024 3025 3025 3026 3026 3027 3027 3027 3028 3028 3029 3029 3030 3030 3031 3031 3031 3032 3032 3033 3033 3033 3033 3033
3088 3087 3086 3085 3083 3082 3080 3079 3077 3076 3074 3072 3071 3069 3068 3066 3064 3062 3061 3059 3057 3055 3053 3051 3049 3047 3045 3043 3041 3039 3037 3035 3033 3031 3030 3028 3027 3026 3025 3024 3023 3023 3022 3021 3021 3021 3021 3021 3020 3020 3021 3021 3021 3021 3022 3022 3022 3023 3023 3023 3024 3024 3025 3025 3025 3026 3026 3026 3027 3027 3028 3028 3028 3029 3029 3030 3030 3031 3031 3032 3032 3032 3032 3033 3033
3087 3086 3085 3083 3082 3081 3079 3078 3076 3075 3074 3073 3071 3069 3067 3066 3064 3062 3060 3059 3057 3055 3053 3051 3049 3047 3046 3044 3042 3040 3039 3037 3035 3032 3031 3029 3028 3027 3026 3025 3024 3024 3023 3023 3022 3022 3022 3022 3021 3021 3021 3022 3022 3022 3022 3022 3022 3023 3023 3023 3023 3024 3024 3024 3025 3025 3025 3026 3026 3027 3027 3027 3028 3029 3029 3030 3030 3031 3031 3031 3032 3032 3032 3032 3032
3086 3085 3084 3082 3081 3080 3078 3077 3075 3074 3074 3072 3070 3068 3066 3065 3063 3062 3060 3059 3057 3055 3053 3051 3049 3048 3046 3044 3043 3041 3039 3038 3036 3034 3032 3030 3029 3027 3026 3025 3025 3024 3024 3023 3023 3023 3022 3022 3022 3022 3022 3022 3022 3022 3022 3022 3022 3022 3022 3023 3023 3023 3023 3024 3024 3024 3025 3025 3026 3026 3027 3027 3028 3029 3029 3029 3030 3030 3030 3031 3031 3031 3030 3030 3030
3085 3084 3083 3081 3080 3078 3077 3076 3075 3073 3072 3071 3069 3068 3066 3065 3063 3061 3060 3058 3057 3055 3053 3051 3050 3048 3046 3045 3043 3041 3040 3038 3037 3035 3033 3031 3029 3028 3027 3026 3025 3024 3024 3023 3023 3023 3022 3022 3022 3022 3022 3022 3022 3022 3022 3022 3022 3022 3022 3022 3022 3022 3023 3023 3023 3024 3024 3025 3026 3026 3026 3027 3028 3028 3028 3029 3029 3029 3029 3029 3029 3029 3029 3029 3029
3083 3082 3081 3080 3078 3077 3076 3075 3073 3072 3071 3070 3068 3067 3065 3064 3062 3061 3059 3058 3056 3055 3053 3051 3050 3048 3046 3045 3043 3042 3041 3039 3037 3036 3034 3032 3030 3029 3027 3026 3025 3024 3024 3023 3023 3022 3022 3022 3022 3021 3021 3021 3021 3021 3021 3021 3021 3021 3021 3021 3021 3022 3022 3022 3023 3023 3024 3025 3025 3025 3026 3026 3027 3027 3028 3028 3028 3028 3028 3028 3028 3028 3028 3028 3029
3082 3081 3079 3078 3077 3076 3074 3073 3072 3071 3069 3068 3067 3066 3064 3063 3061 3060 3058 3057 3056 3054 3053 3051 3049 3048 3046 3045 3043 3042 3041 3039 3038 3036 3035 3033 3031 3029 3028 3026 3025 3025 3024 3023 3023 3022 3022 3021 3021 3021 3020 3020 3020 3020 3020 3020 3020 3020 3020 3021 3021 3021 3022 3022 3022 3023 3023 3024 3024 3025 3025 3026 3026 3027 3027 3027 3027 3027 3027 3027 3027 3028 3028 3028 3028